Hourly Weather Holovkove

Today, 13 April, Tuesday

Time Temperature Precipitation Wind Pressure Humidity
00:00 +13°C° 0 mm 1 mps 750 mmHg 72%
01:00 +12°C° 0 mm 2 mps 750 mmHg 74%
02:00 +12°C° 0 mm 2 mps 750 mmHg 76%
03:00 +10°C° 0 mm 2 mps 750 mmHg 78%
04:00 +10°C° 0 mm 2 mps 750 mmHg 79%
05:00 +10°C° 0 mm 3 mps 750 mmHg 80%
06:00 +9°C° 0 mm 3 mps 750 mmHg 81%
07:00 +11°C° 0 mm 4 mps 750 mmHg 75%
08:00 +12°C° 0 mm 5 mps 751 mmHg 69%
09:00 +14°C° 0 mm 6 mps 751 mmHg 58%
10:00 +15°C° 0 mm 6 mps 750 mmHg 53%
11:00 +17°C° 0 mm 7 mps 750 mmHg 49%
12:00 +18°C° 0 mm 7 mps 750 mmHg 44%
13:00 +18°C° 0 mm 7 mps 750 mmHg 49%
14:00 +17°C° 0 mm 7 mps 750 mmHg 53%
15:00 +16°C° 0 mm 7 mps 750 mmHg 59%
16:00 +16°C° 0.1 mm 6 mps 750 mmHg 63%
17:00 +15°C° 0.1 mm 6 mps 750 mmHg 67%
18:00 +15°C° 0.1 mm 5 mps 749 mmHg 71%
19:00 +14°C° 0 mm 4 mps 750 mmHg 75%
20:00 +13°C° 0 mm 3 mps 750 mmHg 80%
21:00 +12°C° 0 mm 2 mps 750 mmHg 84%
22:00 +12°C° 0 mm 2 mps 750 mmHg 85%
23:00 +12°C° 0 mm 1 mps 750 mmHg 85%

Tomorrow, 14 April, Wednesday

Time Temperature Precipitation Wind Pressure Humidity
00:00 +11°C° 0 mm 0 mps 750 mmHg 86%
01:00 +11°C° 0 mm 1 mps 750 mmHg 87%
02:00 +11°C° 0 mm 1 mps 749 mmHg 89%
03:00 +10°C° 0 mm 1 mps 749 mmHg 90%
04:00 +10°C° 0 mm 1 mps 749 mmHg 90%
05:00 +10°C° 0 mm 1 mps 749 mmHg 90%
06:00 +10°C° 0 mm 1 mps 748 mmHg 91%
07:00 +11°C° 0.1 mm 1 mps 748 mmHg 86%
08:00 +12°C° 0.1 mm 1 mps 748 mmHg 80%
09:00 +14°C° 0.1 mm 1 mps 748 mmHg 75%
10:00 +15°C° 0 mm 1 mps 747 mmHg 69%
11:00 +16°C° 0 mm 1 mps 747 mmHg 62%
12:00 +17°C° 0 mm 2 mps 747 mmHg 55%
13:00 +18°C° 0.3 mm 2 mps 746 mmHg 53%
14:00 +18°C° 0.3 mm 2 mps 746 mmHg 50%
15:00 +18°C° 0.3 mm 2 mps 746 mmHg 47%
16:00 +18°C° 0.1 mm 3 mps 746 mmHg 49%
17:00 +17°C° 0.1 mm 3 mps 746 mmHg 50%
18:00 +15°C° 0.1 mm 4 mps 745 mmHg 52%
19:00 +14°C° 0 mm 3 mps 745 mmHg 56%
20:00 +14°C° 0 mm 2 mps 745 mmHg 60%
21:00 +13°C° 0 mm 2 mps 745 mmHg 64%
22:00 +13°C° 0 mm 1 mps 745 mmHg 65%
23:00 +13°C° 0 mm 1 mps 745 mmHg 66%

Day after tomorrow, 15 April, Thursday

Time Temperature Precipitation Wind Pressure Humidity
00:00 +13°C° 0 mm 1 mps 745 mmHg 68%
01:00 +10°C° 0 mm 2 mps 744 mmHg 81%
02:00 +9°C° 0 mm 2 mps 744 mmHg 82%
03:00 +9°C° 0 mm 2 mps 745 mmHg 83%
04:00 +9°C° 0 mm 2 mps 745 mmHg 85%
05:00 +8°C° 0 mm 2 mps 745 mmHg 86%
06:00 +8°C° 0 mm 2 mps 745 mmHg 88%
07:00 +12°C° 0.1 mm 1 mps 745 mmHg 76%
08:00 +13°C° 0.1 mm 1 mps 745 mmHg 74%
09:00 +13°C° 0.1 mm 2 mps 745 mmHg 72%
10:00 +15°C° 0.1 mm 2 mps 745 mmHg 64%
11:00 +16°C° 0.1 mm 3 mps 745 mmHg 56%
12:00 +18°C° 0.1 mm 3 mps 744 mmHg 48%
13:00 +11°C° 0.1 mm 3 mps 745 mmHg 74%
14:00 +14°C° 0.1 mm 3 mps 744 mmHg 59%
15:00 +18°C° 0.1 mm 4 mps 744 mmHg 45%
16:00 +17°C° 0 mm 4 mps 744 mmHg 48%
17:00 +17°C° 0 mm 4 mps 744 mmHg 51%
18:00 +16°C° 0 mm 3 mps 744 mmHg 54%
19:00 +14°C° 0.3 mm 3 mps 744 mmHg 62%
20:00 +13°C° 0.3 mm 3 mps 744 mmHg 70%
21:00 +13°C° 0.3 mm 2 mps 745 mmHg 77%
22:00 +12°C° 0.3 mm 2 mps 745 mmHg 80%
23:00 +12°C° 0.3 mm 2 mps 744 mmHg 82%

16 April, Friday

Time Temperature Precipitation Wind Pressure Humidity
00:00 +10°C° 0.3 mm 2 mps 744 mmHg 85%
01:00 +10°C° 0 mm 2 mps 744 mmHg 87%
02:00 +9°C° 0 mm 2 mps 744 mmHg 89%
03:00 +8°C° 0 mm 2 mps 745 mmHg 90%
04:00 +8°C° 0 mm 2 mps 745 mmHg 90%
05:00 +7°C° 0 mm 2 mps 745 mmHg 90%
06:00 +7°C° 0 mm 2 mps 745 mmHg 90%
07:00 +8°C° 0 mm 3 mps 745 mmHg 83%
08:00 +9°C° 0 mm 3 mps 746 mmHg 76%
09:00 +11°C° 0 mm 3 mps 746 mmHg 69%
10:00 +12°C° 0 mm 4 mps 746 mmHg 63%
11:00 +13°C° 0 mm 4 mps 746 mmHg 56%
12:00 +14°C° 0 mm 5 mps 746 mmHg 50%
13:00 +14°C° 0 mm 5 mps 746 mmHg 49%
14:00 +13°C° 0 mm 5 mps 746 mmHg 48%
15:00 +13°C° 0 mm 6 mps 746 mmHg 47%
16:00 +13°C° 0 mm 5 mps 746 mmHg 50%
17:00 +12°C° 0 mm 5 mps 747 mmHg 52%
18:00 +10°C° 0 mm 5 mps 747 mmHg 54%
19:00 +10°C° 0 mm 4 mps 747 mmHg 59%
20:00 +9°C° 0 mm 3 mps 747 mmHg 64%
21:00 +8°C° 0 mm 2 mps 747 mmHg 69%
22:00 +7°C° 0 mm 2 mps 747 mmHg 70%
23:00 +8°C° 0 mm 1 mps 747 mmHg 71%

17 April, Saturday

Time Temperature Precipitation Wind Pressure Humidity
00:00 +8°C° 0 mm 1 mps 748 mmHg 72%
01:00 +8°C° 0 mm 1 mps 748 mmHg 74%
02:00 +7°C° 0 mm 1 mps 748 mmHg 75%
03:00 +7°C° 0 mm 1 mps 748 mmHg 77%
04:00 +7°C° 0 mm 1 mps 748 mmHg 78%
05:00 +7°C° 0 mm 1 mps 748 mmHg 79%
06:00 +7°C° 0 mm 1 mps 748 mmHg 80%
07:00 +8°C° 0 mm 1 mps 749 mmHg 76%
08:00 +9°C° 0 mm 1 mps 749 mmHg 72%
09:00 +10°C° 0 mm 1 mps 749 mmHg 68%
10:00 +11°C° 0 mm 1 mps 749 mmHg 63%
11:00 +12°C° 0 mm 2 mps 749 mmHg 59%
12:00 +13°C° 0 mm 2 mps 749 mmHg 54%
13:00 +13°C° 0 mm 2 mps 750 mmHg 53%
14:00 +13°C° 0 mm 2 mps 750 mmHg 51%
15:00 +13°C° 0 mm 2 mps 750 mmHg 49%
16:00 +13°C° 0 mm 2 mps 750 mmHg 51%
17:00 +13°C° 0 mm 2 mps 750 mmHg 53%
18:00 +12°C° 0 mm 2 mps 750 mmHg 54%
19:00 +10°C° 0 mm 2 mps 750 mmHg 60%
20:00 +9°C° 0 mm 2 mps 750 mmHg 66%
21:00 +9°C° 0 mm 1 mps 750 mmHg 71%
22:00 +9°C° 0 mm 1 mps 751 mmHg 73%
23:00 +8°C° 0 mm 1 mps 751 mmHg 75%

18 April, Sunday

Time Temperature Precipitation Wind Pressure Humidity
00:00 +8°C° 0 mm 1 mps 751 mmHg 78%
01:00 +8°C° 0 mm 1 mps 751 mmHg 79%
02:00 +8°C° 0 mm 1 mps 751 mmHg 80%
03:00 +8°C° 0 mm 1 mps 751 mmHg 82%
04:00 +8°C° 0 mm 1 mps 751 mmHg 82%
05:00 +8°C° 0 mm 1 mps 751 mmHg 83%
06:00 +8°C° 0 mm 1 mps 751 mmHg 83%
07:00 +8°C° 0 mm 1 mps 751 mmHg 79%
08:00 +9°C° 0 mm 1 mps 751 mmHg 76%
09:00 +10°C° 0 mm 1 mps 752 mmHg 72%
10:00 +11°C° 0.1 mm 1 mps 752 mmHg 69%
11:00 +10°C° 0.1 mm 2 mps 752 mmHg 67%
12:00 +12°C° 0.1 mm 2 mps 752 mmHg 64%
13:00 +13°C° 0 mm 2 mps 752 mmHg 60%
14:00 +12°C° 0 mm 3 mps 752 mmHg 57%
15:00 +13°C° 0 mm 3 mps 752 mmHg 53%
16:00 +13°C° 0 mm 3 mps 752 mmHg 54%
17:00 +13°C° 0 mm 3 mps 752 mmHg 55%
18:00 +13°C° 0 mm 3 mps 752 mmHg 56%
19:00 +12°C° 0 mm 3 mps 752 mmHg 61%
20:00 +10°C° 0 mm 3 mps 752 mmHg 67%
21:00 +9°C° 0 mm 3 mps 752 mmHg 72%
22:00 +9°C° 0 mm 3 mps 752 mmHg 77%
23:00 +8°C° 0 mm 3 mps 752 mmHg 83%
Show more